Flag for Switzerland Weather past 2 weeks in Steffisburg, Bern, Switzerland

Now
64 °F

Scattered clouds.


Feels Like: 64 °F
Forecast: 45 / 77 °F
Wind: 3 mph from North

Location: Bern / Belp

Current Time: Jul 30, 2015 at 12:12:50 PM

Latest Report: Jul 30, 2015 at 11:50 AM


Visibility: N/A

Pressure: 30.04 "Hg (28.06 "Hg at 582m altitude)

Humidity: 52%

Dew point: 46 °F

Location of SteffisburgLocation

Historic Weather in Steffisburg — Graph

°F

Steffisburg temperature yesterday

Maximum temperature yesterday: 68 °F (at 2:50 PM)
Minimum temperature yesterday: 57 °F (at 4:20 AM)
Average temperature yesterday: 61 °F

Past Weeks' High & Low Weather Summary

 TemperatureHumidityPressure
High93 °F (Jul 16, 4:20 PM)100% (Jul 16, 4:50 AM)30.21 "Hg (Jul 16, 4:50 AM)
Low48 °F (Jul 26, 4:20 AM)20% (Jul 16, 4:50 PM)29.74 "Hg (Jul 24, 5:20 PM)
Average70 °F69%29.99 "Hg
* Reported Jul 15 10:20 AM — Jul 30 10:50 AM, Steffisburg, Weather by CustomWeather, © 2015

Note: Actual official high and low records may vary slightly from our data, if they occured in-between our weather recording intervals... More about our weather records

Advertising

Steffisburg weather history for previous 24 hours

 ConditionsComfort  
Time TempWeatherWind HumidityBarometerVisibility
10:50 AM
Thu, Jul 30
63 °FScattered clouds.2 mph59%30.04 "HgN/A
10:20 AM63 °FScattered clouds.1 mph68%30.04 "HgN/A
9:50 AM61 °FPassing clouds.No wind68%30.04 "HgN/A
9:20 AM59 °FScattered clouds.2 mph77%30.04 "HgN/A
8:50 AM57 °FPartly sunny.2 mph82%30.04 "HgN/A
8:20 AM55 °FPartly sunny.3 mph88%30.04 "HgN/A
7:50 AM54 °FPartly sunny.No wind94%30.04 "HgN/A
7:20 AM52 °FScattered clouds.No wind100%30.04 "HgN/A
6:50 AM50 °FPassing clouds.1 mph100%30.04 "HgN/A
6:20 AM50 °FPassing clouds.1 mph100%30.01 "HgN/A
5:50 AM52 °FPassing clouds.1 mph100%30.01 "HgN/A
5:20 AM52 °FOvercast.2 mph100%30.01 "HgN/A
4:50 AM54 °FPartly cloudy.1 mph100%30.01 "HgN/A
4:20 AM54 °FOvercast.1 mph100%30.01 "HgN/A
3:50 AM55 °FOvercast.1 mph94%30.01 "HgN/A
3:20 AM55 °FPartly cloudy.1 mph94%30.01 "HgN/A
2:50 AM55 °FMostly cloudy.1 mph94%30.01 "HgN/A
2:20 AM57 °FOvercast.1 mph94%30.04 "HgN/A
1:50 AM57 °FMostly cloudy.1 mph88%30.04 "HgN/A
1:20 AM57 °FOvercast.1 mph88%30.04 "HgN/A
12:50 AM57 °FMostly cloudy.3 mph82%30.01 "HgN/A
12:20 AM57 °FOvercast.2 mph94%30.01 "HgN/A
11:50 PM
Wed, Jul 29
59 °FPassing clouds.1 mph88%30.01 "HgN/A
11:20 PM59 °FMostly cloudy.2 mph88%30.01 "HgN/A
10:50 PM59 °FPartly cloudy.1 mph94%30.01 "HgN/A
10:20 PM59 °FPassing clouds.1 mph100%29.98 "HgN/A
9:50 PM59 °FPartly sunny.1 mph100%29.98 "HgN/A
9:20 PM61 °FPartly sunny.2 mph88%29.98 "HgN/A
8:50 PM61 °FPartly sunny.2 mph88%29.98 "HgN/A
8:20 PM61 °FPartly sunny.3 mph88%29.98 "HgN/A
7:50 PM61 °FBroken clouds.7 mph88%29.95 "HgN/A
7:20 PM63 °FBroken clouds.7 mph83%29.95 "HgN/A
6:50 PM64 °FBroken clouds.3 mph88%29.95 "HgN/A
6:20 PM63 °FDrizzle. Broken clouds.8 mph94%29.92 "Hg5 mi
5:50 PM63 °FLight rain. Broken clouds.9 mph94%29.92 "HgN/A
5:20 PM63 °FLight rain. Broken clouds.9 mph94%29.92 "Hg3 mi
4:50 PM63 °FSprinkles. Broken clouds.8 mph94%29.92 "HgN/A
4:20 PM64 °FSprinkles. Broken clouds.13 mph94%29.89 "Hg5 mi
3:50 PM66 °FSprinkles. Broken clouds.9 mph83%29.89 "HgN/A
3:20 PM66 °FSprinkles. Broken clouds.9 mph83%29.89 "HgN/A
2:50 PM68 °FBroken clouds.8 mph78%29.89 "HgN/A
2:20 PM66 °FPartly sunny.10 mph88%29.89 "HgN/A
1:50 PM66 °FPartly sunny.8 mph83%29.86 "HgN/A
1:20 PM66 °FDrizzle. Partly sunny.8 mph78%29.89 "HgN/A
12:50 PM66 °FLight rain. Broken clouds.7 mph73%29.89 "HgN/A
12:20 PM64 °FPartly sunny.6 mph83%29.86 "HgN/A
Weather by CustomWeather, © 2015

See weather overviewHow to use our weather pages